PY4QS-13 Weather Reports


time (UTC)temp
C
wind
direction
speed
KPH
gust
KPH
rain 1hr
cm
rain 24hr
cm
rain mn
cm
humidity
%
barometer
mb
20260509211100 24 0 0.0 0.0 0.00 0.00 0.00 54 1020.1
20260509210554 24 0 0.0 0.0 0.00 0.00 0.00 54 1020.1
20260509210017 24 0 0.0 0.0 0.00 0.00 0.00 54 1020.0
20260509205456 24 0 0.0 0.0 0.00 0.00 0.00 54 1019.9
20260509204952 25 0 0.0 0.0 0.00 0.00 0.00 54 1019.9
20260509204446 25 0 0.0 0.0 0.00 0.00 0.00 54 1019.9
20260509203939 25 0 0.0 0.0 0.00 0.00 0.00 54 1019.8
20260509203432 25 0 0.0 0.0 0.00 0.00 0.00 53 1019.7
20260509202926 25 0 0.0 0.0 0.00 0.00 0.00 53 1019.8
20260509202421 25 0 0.0 0.0 0.00 0.00 0.00 53 1019.7
20260509201901 25 0 0.0 0.0 0.00 0.00 0.00 52 1019.6
20260509201358 26 0 0.0 0.0 0.00 0.00 0.00 50 1019.5
20260509200854 26 0 0.0 0.0 0.00 0.00 0.00 50 1019.4
20260509200349 26 0 0.0 0.0 0.00 0.00 0.00 50 1019.4
20260509195841 26 0 0.0 0.0 0.00 0.00 0.00 47 1019.3
20260509195338 26 0 0.0 0.0 0.00 0.00 0.00 48 1019.3
20260509194751 26 0 0.0 0.0 0.00 0.00 0.00 46 1019.2
20260509194245 26 0 0.0 0.0 0.00 0.00 0.00 45 1019.3
20260509193723 26 0 0.0 0.0 0.00 0.00 0.00 45 1019.1
20260509193219 26 0 0.0 0.0 0.00 0.00 0.00 46 1019.2
20260509192714 26 0 0.0 0.0 0.00 0.00 0.00 47 1019.2
20260509192211 26 0 0.0 0.0 0.00 0.00 0.00 47 1019.2
20260509191706 26 0 0.0 0.0 0.00 0.00 0.00 47 1019.2
20260509191200 26 0 0.0 0.0 0.00 0.00 0.00 47 1019.2
20260509190640 26 0 0.0 0.0 0.00 0.00 0.00 45 1019.2
20260509190135 26 0 0.0 0.0 0.00 0.00 0.00 45 1019.0
20260509185630 26 0 0.0 0.0 0.00 0.00 0.00 45 1019.0
20260509185126 26 0 0.0 0.0 0.00 0.00 0.00 45 1019.0
20260509184622 27 0 0.0 0.0 0.00 0.00 0.00 44 1019.0
20260509184118 27 0 0.0 0.0 0.00 0.00 0.00 45 1019.2
20260509183614 27 0 0.0 0.0 0.00 0.00 0.00 45 1019.2
20260509183111 27 0 0.0 0.0 0.00 0.00 0.00 45 1019.2
20260509182552 27 0 0.0 0.0 0.00 0.00 0.00 44 1019.2
20260509182030 27 0 0.0 0.0 0.00 0.00 0.00 45 1019.2
20260509181526 27 0 0.0 0.0 0.00 0.00 0.00 45 1019.2
20260509181005 27 0 0.0 0.0 0.00 0.00 0.00 45 1019.3
20260509180459 27 0 0.0 0.0 0.00 0.00 0.00 44 1019.4
20260509175955 27 0 0.0 0.0 0.00 0.00 0.00 44 1019.3
20260509175450 27 0 0.0 0.0 0.00 0.00 0.00 43 1019.3
20260509174928 27 0 0.0 0.0 0.00 0.00 0.00 44 1019.4
20260509174408 27 0 0.0 0.0 0.00 0.00 0.00 44 1019.4
20260509173903 27 0 0.0 0.0 0.00 0.00 0.00 43 1019.4
20260509173357 27 0 0.0 0.0 0.00 0.00 0.00 45 1019.4
20260509172821 27 0 0.0 0.0 0.00 0.00 0.00 44 1019.4
20260509172301 27 0 0.0 0.0 0.00 0.00 0.00 44 1019.3
20260509171739 27 0 0.0 0.0 0.00 0.00 0.00 44 1019.3
20260509171203 27 0 0.0 0.0 0.00 0.00 0.00 43 1019.3
20260509170656 27 0 0.0 0.0 0.00 0.00 0.00 43 1019.4
20260509170152 27 0 0.0 0.0 0.00 0.00 0.00 43 1019.5
20260509165646 27 0 0.0 0.0 0.00 0.00 0.00 42 1019.6
20260509165124 27 0 0.0 0.0 0.00 0.00 0.00 42 1019.6
20260509164618 27 0 0.0 0.0 0.00 0.00 0.00 42 1019.7
20260509164114 27 0 0.0 0.0 0.00 0.00 0.00 41 1019.8
20260509163610 27 0 0.0 0.0 0.00 0.00 0.00 42 1019.9
20260509163106 27 0 0.0 0.0 0.00 0.00 0.00 42 1019.9
20260509162600 27 0 0.0 0.0 0.00 0.00 0.00 41 1019.9
20260509162041 27 0 0.0 0.0 0.00 0.00 0.00 40 1019.8
20260509161537 27 0 0.0 0.0 0.00 0.00 0.00 41 1020.0
20260509161015 27 0 0.0 0.0 0.00 0.00 0.00 41 1020.0
20260509160510 27 0 0.0 0.0 0.00 0.00 0.00 42 1019.9
20260509160006 27 0 0.0 0.0 0.00 0.00 0.00 41 1020.0
20260509155503 27 0 0.0 0.0 0.00 0.00 0.00 42 1020.0
20260509154957 27 0 0.0 0.0 0.00 0.00 0.00 42 1020.1
20260509154451 27 0 0.0 0.0 0.00 0.00 0.00 43 1020.2
20260509153946 27 0 0.0 0.0 0.00 0.00 0.00 42 1020.2
20260509153441 27 0 0.0 0.0 0.00 0.00 0.00 43 1020.3
20260509152937 27 0 0.0 0.0 0.00 0.00 0.00 42 1020.4
20260509152418 27 0 0.0 0.0 0.00 0.00 0.00 42 1020.5
20260509151913 27 0 0.0 0.0 0.00 0.00 0.00 42 1020.7
20260509151352 27 0 0.0 0.0 0.00 0.00 0.00 42 1020.8
20260509150847 27 0 0.0 0.0 0.00 0.00 0.00 43 1020.8
20260509150342 27 0 0.0 0.0 0.00 0.00 0.00 43 1020.9
20260509145804 27 0 0.0 0.0 0.00 0.00 0.00 41 1020.9
20260509145244 27 0 0.0 0.0 0.00 0.00 0.00 43 1021.0
20260509144741 27 0 0.0 0.0 0.00 0.00 0.00 45 1021.2
20260509144235 27 0 0.0 0.0 0.00 0.00 0.00 45 1021.2
20260509143713 27 0 0.0 0.0 0.00 0.00 0.00 45 1021.2
20260509143207 27 0 0.0 0.0 0.00 0.00 0.00 45 1021.2
20260509142647 26 0 0.0 0.0 0.00 0.00 0.00 47 1021.3
20260509142142 26 0 0.0 0.0 0.00 0.00 0.00 47 1021.4
20260509141638 26 0 0.0 0.0 0.00 0.00 0.00 47 1021.5
20260509141118 26 0 0.0 0.0 0.00 0.00 0.00 48 1021.5
20260509140614 26 0 0.0 0.0 0.00 0.00 0.00 50 1021.6
20260509140108 25 0 0.0 0.0 0.00 0.00 0.00 50 1021.6
20260509135533 25 0 0.0 0.0 0.00 0.00 0.00 52 1021.6
20260509135028 25 0 0.0 0.0 0.00 0.00 0.00 53 1021.7
20260509134452 25 0 0.0 0.0 0.00 0.00 0.00 53 1021.6
20260509133948 24 0 0.0 0.0 0.00 0.00 0.00 55 1021.7
20260509133444 24 0 0.0 0.0 0.00 0.00 0.00 54 1021.7
20260509132923 24 0 0.0 0.0 0.00 0.00 0.00 55 1021.7
20260509132419 24 0 0.0 0.0 0.00 0.00 0.00 55 1021.8
20260509131913 23 0 0.0 0.0 0.00 0.00 0.00 56 1021.8
20260509131407 23 0 0.0 0.0 0.00 0.00 0.00 56 1021.9
20260509130903 23 0 0.0 0.0 0.00 0.00 0.00 57 1021.9
20260509130359 23 0 0.0 0.0 0.00 0.00 0.00 57 1021.9
20260509125854 23 0 0.0 0.0 0.00 0.00 0.00 57 1021.8
20260509125349 23 0 0.0 0.0 0.00 0.00 0.00 57 1021.9
20260509124844 23 0 0.0 0.0 0.00 0.00 0.00 57 1021.8
20260509124340 23 0 0.0 0.0 0.00 0.00 0.00 57 1021.8
20260509123820 22 0 0.0 0.0 0.00 0.00 0.00 58 1021.7
20260509123315 22 0 0.0 0.0 0.00 0.00 0.00 58 1021.7
20260509122809 22 0 0.0 0.0 0.00 0.00 0.00 59 1021.6
20260509122306 22 0 0.0 0.0 0.00 0.00 0.00 59 1021.7
20260509121758 22 0 0.0 0.0 0.00 0.00 0.00 59 1021.6
20260509120612 22 0 0.0 0.0 0.00 0.00 0.00 60 1021.5
20260509120050 21 0 0.0 0.0 0.00 0.00 0.00 60 1021.4
20260509115545 21 0 0.0 0.0 0.00 0.00 0.00 61 1021.4
20260509115039 21 0 0.0 0.0 0.00 0.00 0.00 60 1021.4
20260509114534 21 0 0.0 0.0 0.00 0.00 0.00 61 1021.3
20260509114028 21 0 0.0 0.0 0.00 0.00 0.00 61 1021.2
20260509113522 21 0 0.0 0.0 0.00 0.00 0.00 62 1021.2
20260509113002 21 0 0.0 0.0 0.00 0.00 0.00 62 1021.1
20260509112442 21 0 0.0 0.0 0.00 0.00 0.00 62 1021.1
20260509111833 21 0 0.0 0.0 0.00 0.00 0.00 63 1020.9
20260509111328 20 0 0.0 0.0 0.00 0.00 0.00 63 1021.0
20260509110821 20 0 0.0 0.0 0.00 0.00 0.00 63 1021.0
20260509110243 20 0 0.0 0.0 0.00 0.00 0.00 63 1020.9
20260509105739 20 0 0.0 0.0 0.00 0.00 0.00 63 1020.9
20260509105233 21 0 0.0 0.0 0.00 0.00 0.00 63 1020.8
20260509104727 20 0 0.0 0.0 0.00 0.00 0.00 63 1020.7
20260509104222 20 0 0.0 0.0 0.00 0.00 0.00 64 1020.7
20260509103717 20 0 0.0 0.0 0.00 0.00 0.00 65 1020.7
20260509103211 20 0 0.0 0.0 0.00 0.00 0.00 65 1020.7
20260509102706 20 0 0.0 0.0 0.00 0.00 0.00 66 1020.6
20260509102202 20 0 0.0 0.0 0.00 0.00 0.00 65 1020.5
20260509101641 20 0 0.0 0.0 0.00 0.00 0.00 66 1020.4
20260509101119 19 0 0.0 0.0 0.00 0.00 0.00 66 1020.5
20260509100614 19 0 0.0 0.0 0.00 0.00 0.00 66 1020.5
20260509100110 19 0 0.0 0.0 0.00 0.00 0.00 66 1020.4
20260509095605 19 0 0.0 0.0 0.00 0.00 0.00 66 1020.3
20260509095100 19 0 0.0 0.0 0.00 0.00 0.00 66 1020.3
20260509094523 19 0 0.0 0.0 0.00 0.00 0.00 66 1020.2
20260509094017 19 0 0.0 0.0 0.00 0.00 0.00 66 1020.2
20260509093511 19 0 0.0 0.0 0.00 0.00 0.00 66 1020.2
20260509093006 19 0 0.0 0.0 0.00 0.00 0.00 66 1020.0
20260509092500 19 0 0.0 0.0 0.00 0.00 0.00 66 1020.0
20260509091955 19 0 0.0 0.0 0.00 0.00 0.00 66 1019.9
20260509091346 19 0 0.0 0.0 0.00 0.00 0.00 66 1019.8
20260509090839 19 0 0.0 0.0 0.00 0.00 0.00 66 1019.6
20260509090333 19 0 0.0 0.0 0.00 0.00 0.00 66 1019.5
20260509085813 19 0 0.0 0.0 0.00 0.00 0.00 66 1019.3
20260509085309 19 0 0.0 0.0 0.00 0.00 0.00 66 1019.3
20260509084749 19 0 0.0 0.0 0.00 0.00 0.00 66 1019.4
20260509084213 19 0 0.0 0.0 0.00 0.00 0.00 66 1019.3
20260509083706 19 0 0.0 0.0 0.00 0.00 0.00 66 1019.3
20260509083201 19 0 0.0 0.0 0.00 0.00 0.00 66 1019.3
20260509082655 19 0 0.0 0.0 0.00 0.00 0.00 66 1019.1
20260509082151 19 0 0.0 0.0 0.00 0.00 0.00 66 1019.2
20260509081646 19 0 0.0 0.0 0.00 0.00 0.00 66 1019.3
20260509081140 19 0 0.0 0.0 0.00 0.00 0.00 66 1019.3
20260509080635 19 0 0.0 0.0 0.00 0.00 0.00 65 1019.1
20260509080130 19 0 0.0 0.0 0.00 0.00 0.00 65 1019.2
20260509075624 19 0 0.0 0.0 0.00 0.00 0.00 65 1019.3
20260509075121 20 0 0.0 0.0 0.00 0.00 0.00 64 1019.2
20260509074616 20 0 0.0 0.0 0.00 0.00 0.00 64 1019.1
20260509074056 20 0 0.0 0.0 0.00 0.00 0.00 64 1019.1
20260509073553 20 0 0.0 0.0 0.00 0.00 0.00 64 1019.2
20260509073002 20 0 0.0 0.0 0.00 0.00 0.00 63 1019.1
20260509072459 20 0 0.0 0.0 0.00 0.00 0.00 63 1019.2
20260509071954 20 0 0.0 0.0 0.00 0.00 0.00 63 1019.2
20260509071432 20 0 0.0 0.0 0.00 0.00 0.00 63 1019.1
20260509070927 20 0 0.0 0.0 0.00 0.00 0.00 63 1019.1
20260509070424 20 0 0.0 0.0 0.00 0.00 0.00 63 1019.1
20260509065918 20 0 0.0 0.0 0.00 0.00 0.00 63 1019.1
20260509065357 20 0 0.0 0.0 0.00 0.00 0.00 63 1019.1
20260509064852 20 0 0.0 0.0 0.00 0.00 0.00 64 1019.0
20260509064348 20 0 0.0 0.0 0.00 0.00 0.00 64 1019.0
20260509063844 19 0 0.0 0.0 0.00 0.00 0.00 64 1019.0
20260509063340 20 0 0.0 0.0 0.00 0.00 0.00 64 1019.0
20260509062818 19 0 0.0 0.0 0.00 0.00 0.00 65 1019.0
20260509062313 20 0 0.0 0.0 0.00 0.00 0.00 64 1019.0
20260509061809 20 0 0.0 0.0 0.00 0.00 0.00 64 1019.0
20260509061305 20 0 0.0 0.0 0.00 0.00 0.00 64 1019.0
20260509060800 20 0 0.0 0.0 0.00 0.00 0.00 64 1019.0
20260509060240 20 0 0.0 0.0 0.00 0.00 0.00 63 1018.9
20260509055737 20 0 0.0 0.0 0.00 0.00 0.00 64 1019.0
20260509055216 20 0 0.0 0.0 0.00 0.00 0.00 63 1018.9
20260509054657 20 0 0.0 0.0 0.00 0.00 0.00 63 1019.0
20260509054153 20 0 0.0 0.0 0.00 0.00 0.00 63 1019.0
20260509053618 20 0 0.0 0.0 0.00 0.00 0.00 62 1018.9
20260509053114 20 0 0.0 0.0 0.00 0.00 0.00 62 1019.0
20260509052608 20 0 0.0 0.0 0.00 0.00 0.00 61 1019.0
20260509052046 20 0 0.0 0.0 0.00 0.00 0.00 61 1019.1
20260509051540 20 0 0.0 0.0 0.00 0.00 0.00 61 1019.1
20260509051034 20 0 0.0 0.0 0.00 0.00 0.00 61 1019.0
20260509050530 20 0 0.0 0.0 0.00 0.00 0.00 61 1019.0
20260509050025 20 0 0.0 0.0 0.00 0.00 0.00 61 1019.0
20260509045519 20 0 0.0 0.0 0.00 0.00 0.00 60 1019.1
20260509045014 21 0 0.0 0.0 0.00 0.00 0.00 60 1019.1
20260509044507 21 0 0.0 0.0 0.00 0.00 0.00 60 1019.1
20260509044003 21 0 0.0 0.0 0.00 0.00 0.00 59 1019.1
20260509043443 21 0 0.0 0.0 0.00 0.00 0.00 59 1019.2
20260509042937 20 0 0.0 0.0 0.00 0.00 0.00 60 1019.2
20260509042432 21 0 0.0 0.0 0.00 0.00 0.00 59 1019.2
20260509041927 21 0 0.0 0.0 0.00 0.00 0.00 60 1019.2
20260509041422 21 0 0.0 0.0 0.00 0.00 0.00 59 1019.1
20260509040916 21 0 0.0 0.0 0.00 0.00 0.00 59 1019.1
20260509040411 21 0 0.0 0.0 0.00 0.00 0.00 59 1019.2
20260509035849 21 0 0.0 0.0 0.00 0.00 0.00 59 1019.1
20260509035345 21 0 0.0 0.0 0.00 0.00 0.00 59 1019.0
20260509034826 20 0 0.0 0.0 0.00 0.00 0.00 60 1018.9
20260509034306 21 0 0.0 0.0 0.00 0.00 0.00 59 1018.8
20260509033800 21 0 0.0 0.0 0.00 0.00 0.00 60 1018.9
20260509033256 21 0 0.0 0.0 0.00 0.00 0.00 60 1018.9
20260509032751 21 0 0.0 0.0 0.00 0.00 0.00 60 1018.9
20260509032229 21 0 0.0 0.0 0.00 0.00 0.00 60 1018.8
20260509031707 21 0 0.0 0.0 0.00 0.00 0.00 60 1018.8
20260509031202 20 0 0.0 0.0 0.00 0.00 0.00 60 1018.9
20260509030656 21 0 0.0 0.0 0.00 0.00 0.00 60 1018.9
20260509030152 21 0 0.0 0.0 0.00 0.00 0.00 60 1018.9
20260509025645 21 0 0.0 0.0 0.00 0.00 0.00 60 1018.9
20260509025124 20 0 0.0 0.0 0.00 0.00 0.00 61 1019.0
20260509024602 21 0 0.0 0.0 0.00 0.00 0.00 61 1019.0
20260509024057 21 0 0.0 0.0 0.00 0.00 0.00 61 1018.9
20260509023551 21 0 0.0 0.0 0.00 0.00 0.00 61 1019.0
20260509023031 21 0 0.0 0.0 0.00 0.00 0.00 60 1019.0
20260509022523 20 0 0.0 0.0 0.00 0.00 0.00 61 1018.9
20260509021955 20 0 0.0 0.0 0.00 0.00 0.00 62 1018.9
20260509021450 21 0 0.0 0.0 0.00 0.00 0.00 62 1018.9
20260509020944 21 0 0.0 0.0 0.00 0.00 0.00 62 1018.9
20260509020440 21 0 0.0 0.0 0.00 0.00 0.00 61 1019.0
20260509015902 21 0 0.0 0.0 0.00 0.00 0.00 61 1019.0
20260509015357 21 0 0.0 0.0 0.00 0.00 0.00 61 1019.0
20260509014822 21 0 0.0 0.0 0.00 0.00 0.00 60 1019.0
20260509014317 21 0 0.0 0.0 0.00 0.00 0.00 59 1019.0
20260509013811 22 0 0.0 0.0 0.00 0.00 0.00 57 1019.0
20260509013003 21 0 0.0 0.0 0.00 0.00 0.00 63 1019.1
20260509012458 21 0 0.0 0.0 0.00 0.00 0.00 63 1019.1
20260509011952 21 0 0.0 0.0 0.00 0.00 0.00 62 1019.2
20260509011430 21 0 0.0 0.0 0.00 0.00 0.00 63 1019.2
20260509010925 21 0 0.0 0.0 0.00 0.00 0.00 62 1019.3
20260509010421 21 0 0.0 0.0 0.00 0.00 0.00 62 1019.3
20260509005916 21 0 0.0 0.0 0.00 0.00 0.00 61 1019.2
20260509005412 21 0 0.0 0.0 0.00 0.00 0.00 61 1019.2
20260509004909 21 0 0.0 0.0 0.00 0.00 0.00 61 1019.2
20260509004404 21 0 0.0 0.0 0.00 0.00 0.00 61 1019.3
20260509003859 21 0 0.0 0.0 0.00 0.00 0.00 61 1019.3
20260509003322 21 0 0.0 0.0 0.00 0.00 0.00 62 1019.2
20260509002817 21 0 0.0 0.0 0.00 0.00 0.00 62 1019.2
20260509002312 21 0 0.0 0.0 0.00 0.00 0.00 63 1019.1
20260509001807 21 0 0.0 0.0 0.00 0.00 0.00 63 1019.1
20260509001302 21 0 0.0 0.0 0.00 0.00 0.00 63 1019.0
20260509000758 21 0 0.0 0.0 0.00 0.00 0.00 63 1019.0
20260509000256 21 0 0.0 0.0 0.00 0.00 0.00 62 1018.9
20260508235749 21 0 0.0 0.0 0.00 0.00 0.00 62 1018.9
20260508235244 21 0 0.0 0.0 0.00 0.00 0.00 61 1018.9
20260508234740 21 0 0.0 0.0 0.00 0.00 0.00 61 1019.0
20260508234233 21 0 0.0 0.0 0.00 0.00 0.00 61 1018.9
20260508233727 21 0 0.0 0.0 0.00 0.00 0.00 61 1018.9
20260508233222 21 0 0.0 0.0 0.00 0.00 0.00 61 1018.9
20260508232717 21 0 0.0 0.0 0.00 0.00 0.00 61 1018.8
20260508232211 21 0 0.0 0.0 0.00 0.00 0.00 61 1018.9
20260508231617 21 0 0.0 0.0 0.00 0.00 0.00 61 1018.8
20260508231112 21 0 0.0 0.0 0.00 0.00 0.00 61 1018.7
20260508230552 21 0 0.0 0.0 0.00 0.00 0.00 61 1018.7
20260508230031 21 0 0.0 0.0 0.00 0.00 0.00 60 1018.7
20260508225527 21 0 0.0 0.0 0.00 0.00 0.00 61 1018.7
20260508225008 21 0 0.0 0.0 0.00 0.00 0.00 60 1018.7
20260508224418 22 0 0.0 0.0 0.00 0.00 0.00 59 1018.6
20260508223856 22 0 0.0 0.0 0.00 0.00 0.00 60 1018.7
20260508223351 22 0 0.0 0.0 0.00 0.00 0.00 59 1018.7
20260508222847 22 0 0.0 0.0 0.00 0.00 0.00 59 1018.6
20260508222341 22 0 0.0 0.0 0.00 0.00 0.00 60 1018.6
20260508221748 22 0 0.0 0.0 0.00 0.00 0.00 59 1018.5
20260508221242 22 0 0.0 0.0 0.00 0.00 0.00 59 1018.5
20260508220721 22 0 0.0 0.0 0.00 0.00 0.00 59 1018.4
20260508220202 22 0 0.0 0.0 0.00 0.00 0.00 58 1018.4
20260508215642 22 0 0.0 0.0 0.00 0.00 0.00 57 1018.4
20260508215121 22 0 0.0 0.0 0.00 0.00 0.00 57 1018.3
20260508214600 22 0 0.0 0.0 0.00 0.00 0.00 56 1018.2
20260508214055 23 0 0.0 0.0 0.00 0.00 0.00 55 1018.1
20260508213552 23 0 0.0 0.0 0.00 0.00 0.00 54 1018.0
20260508213048 23 0 0.0 0.0 0.00 0.00 0.00 54 1018.1
20260508212512 23 0 0.0 0.0 0.00 0.00 0.00 54 1018.0
20260508211950 23 0 0.0 0.0 0.00 0.00 0.00 53 1018.0
20260508211443 23 0 0.0 0.0 0.00 0.00 0.00 53 1017.9